This demonstration page uses our WeatherBlox Daily Observations layout. Learn more.

Left ArrowRight Arrow

Hourly Observations for November 7, 2020

Temp ( °F °C ) Dew Point ( °F °C ) Humidity (%) Winds ( mph kmh ) Pressure ( in mb ) Visibility ( mi km ) Precip ( " mm )
12:51 am 00:51 Clear 74 23.3 34 1.1 23 23 SSE 13 20 29.63 1004 10 16 0.00 0.00
1:51 am 01:51 Clear 71 21.7 34 1.1 26 26 SSE 10 17 29.63 1003 10 16 0.00 0.00
2:51 am 02:51 Clear 70 21.1 34 1.1 27 27 SE 13 20 29.63 1004 10 16 0.00 0.00
3:51 am 03:51 Mostly Cloudy 72 22.2 35 1.7 26 26 SE 14 22 29.63 1003 10 16 0.00 0.00
4:51 am 04:51 Mostly Cloudy 72 22.2 36 2.2 27 27 SE 14 22 29.63 1003 10 16 0.00 0.00
5:51 am 05:51 Mostly Clear 71 21.7 37 2.8 29 29 SE 17 28 29.64 1004 10 16 0.00 0.00
6:51 am 06:51 Mostly Cloudy 71 21.7 38 3.3 30 30 E 12 19 29.64 1004 10 16 0.00 0.00
7:51 am 07:51 Sunny 72 22.2 40 4.4 31 31 E 13 20 29.65 1004 10 16 0.00 0.00
8:51 am 08:51 Partly Cloudy 72 22.2 40 4.4 31 31 SE 10 17 29.65 1004 10 16 0.00 0.00
9:51 am 09:51 Sunny 74 23.3 40 4.4 29 29 SSE 15 24 29.65 1004 10 16 0.00 0.00
10:51 am 10:51 Sunny 76 24.4 39 3.9 26 26 S 15 24 29.63 1003 10 16 0.00 0.00
11:51 am 11:51 Partly Cloudy 77 25 39 3.9 26 26 S 15 24 29.60 1003 10 16 0.00 0.00
12:51 pm 12:51 Cloudy 77 25 40 4.4 26 26 SSE 5 7 29.56 1001 10 16 0.00 0.00
1:51 pm 13:51 Cloudy 78 25.6 42 5.6 28 28 SW 17 28 29.53 1000 10 16 0.00 0.00
2:51 pm 14:51 Cloudy 75 23.9 46 7.8 36 36 SW 14 22 29.54 1000 10 16 0.00 0.00
3:51 pm 15:51 Mostly Cloudy 77 25 45 7.2 32 32 VRB 6 9 29.49 999 10 16 0.00 0.00
4:51 pm 16:51 Cloudy 75 23.9 45 7.2 34 34 S 10 17 29.49 999 10 16 0.00 0.00
5:51 pm 17:51 Cloudy with Light Rain 68 20 52 11.1 57 57 W 13 20 29.53 1000 10 16 0.00 0.00
6:51 pm 18:51 Cloudy 65 18.3 56 13.3 73 73 SE 16 26 29.53 1000 10 16 0.00 0.00
7:51 pm 19:51 Cloudy 69 20.6 52 11.1 55 55 SSE 16 26 29.52 1000 10 16 0.00 0.00
8:51 pm 20:51 Cloudy 61 16.1 46 7.8 58 58 NW 21 33 29.57 1001 10 16 0.00 0.00
9:05 pm 21:05 Cloudy 61 16.1 46 7.8 58 58 NNW 22 35 29.61 1003 10 16 0.00 0.00
9:51 pm 21:51 Cloudy 59 15 48 8.9 67 67 NNW 14 22 29.60 1002 10 16 0.00 0.00
10:51 pm 22:51 Mostly Cloudy 58 14.4 44 6.7 60 60 NW 22 35 29.58 1002 10 16 0.00 0.00
11:51 pm 23:51 Mostly Cloudy 57 13.9 39 3.9 51 51 NW 28 44 29.60 1003 10 16 0.00 0.00

Powered by AerisWeather